This demonstration page uses our WeatherBlox Daily Observations layout. Learn more.

Left ArrowRight Arrow

41.55636, -103.73856

Hourly Observations for July 3, 2017

Temp ( °F °C ) Dew Point ( °F °C ) Humidity (%) Winds ( mph kmh ) Pressure ( in mb ) Visibility ( mi km ) Precip ( " mm )
12:53 am 00:53 Clear 67 19.4 50 10 55 55 SE 12 19 29.93 1014 10 16 0.00 0.00
1:53 am 01:53 Clear 66 18.9 49 9.4 54 54 SSE 5 7 29.93 1013 10 16 0.00 0.00
2:53 am 02:53 Clear 66 18.9 49 9.4 54 54 S 8 13 29.91 1013 10 16 0.00 0.00
3:53 am 03:53 Clear 64 17.8 48 8.9 56 56 SE 7 11 29.92 1013 10 16 0.00 0.00
4:53 am 04:53 Clear 58 14.4 50 10 75 75 ENE 5 7 29.95 1014 10 16 0.00 0.00
5:53 am 05:53 Sunny 63 17.2 49 9.4 60 60 E 5 7 29.93 1014 10 16 0.00 0.00
6:53 am 06:53 Sunny 69 20.6 51 10.6 53 53 ESE 6 9 29.95 1014 10 16 0.00 0.00
7:53 am 07:53 Sunny 73 22.8 54 12.2 51 51 SSE 8 13 29.95 1014 10 16 0.00 0.00
8:53 am 08:53 Sunny 76 24.4 56 13.3 50 50 ESE 8 13 29.94 1014 10 16 0.00 0.00
9:53 am 09:53 Sunny 80 26.7 56 13.3 44 44 S 10 17 29.91 1013 10 16 0.00 0.00
10:53 am 10:53 Sunny 86 30 55 12.8 35 35 SSW 10 17 29.88 1012 10 16 0.00 0.00
11:53 am 11:53 Sunny 89 31.7 49 9.4 25 25 S 9 15 29.86 1011 10 16 0.00 0.00
12:53 pm 12:53 Sunny 90 32.2 47 8.3 23 23 undefined N/A 29.84 1011 10 16 0.00 0.00
1:53 pm 13:53 Sunny 92 33.3 42 5.6 18 18 VRB 7 11 29.82 1010 10 16 0.00 0.00
2:53 pm 14:53 Sunny 94 34.4 41 5 16 16 SSW 7 11 29.81 1009 10 16 0.00 0.00
3:45 pm 15:45 Sunny with Nearby Thunderstorms 95 35 38 3.3 14 14 VRB 6 9 29.59 1002 10 16 0.00 0.00
3:53 pm 15:53 Sunny with Nearby Thunderstorms 94 34.4 38 3.3 14 14 W 7 11 29.79 1009 10 16 0.00 0.00
4:07 pm 16:07 Sunny 94 34.4 41 5 16 16 W 15 24 29.56 1001 10 16 0.00 0.00
4:53 pm 16:53 Sunny 94 34.4 39 3.9 15 15 W 14 22 29.80 1009 10 16 0.00 0.00
5:53 pm 17:53 Sunny 91 32.8 42 5.6 18 18 WSW 12 19 29.76 1008 10 16 0.00 0.00
6:53 pm 18:53 Sunny 84 28.9 52 11.1 33 33 ENE 18 30 29.80 1009 10 16 0.00 0.00
7:53 pm 19:53 Sunny 75 23.9 54 12.2 48 48 ESE 24 39 29.83 1010 10 16 0.00 0.00
8:53 pm 20:53 Clear 71 21.7 53 11.7 53 53 ESE 15 24 29.87 1011 10 16 0.00 0.00
9:53 pm 21:53 Clear 68 20 52 11.1 57 57 ESE 9 15 29.90 1013 10 16 0.00 0.00
10:53 pm 22:53 Clear 67 19.4 51 10.6 57 57 ESE 9 15 29.90 1013 10 16 0.00 0.00
11:53 pm 23:53 Clear 65 18.3 51 10.6 61 61 SE 5 7 29.90 1013 10 16 0.00 0.00

Powered by AerisWeather